When you browse on this site, cookies collect data to enhance your experience and personalize the content and advertising you see.
Visit our Privacy Policy to learn more. By continuing to use the site, you agree to this use of cookies and data.
  • en France
  • Liste des pays
  • À 7 jours
  • Température de l'eau
  • Carte satellitaire
  • Carte météo
  • Widgets météo
  • user-avatar
    Se connecter

    Météo par heure à Letchworth

    Ce jour, 19 Juin, Mercredi

    Heure Température Précipitation Vent Pression Humidité
    00:00 +13°C° 0 mm 1 m/s 748 mmHg 96%
    01:00 +13°C° 0 mm 1 m/s 748 mmHg 96%
    02:00 +13°C° 0 mm 2 m/s 747 mmHg 97%
    03:00 +13°C° 0 mm 2 m/s 747 mmHg 97%
    04:00 +13°C° 0.2 mm 2 m/s 746 mmHg 97%
    05:00 +14°C° 0.2 mm 2 m/s 746 mmHg 96%
    06:00 +15°C° 0.2 mm 2 m/s 746 mmHg 96%
    07:00 +14°C° 0 mm 3 m/s 746 mmHg 95%
    08:00 +16°C° 0 mm 3 m/s 746 mmHg 93%
    09:00 +17°C° 0 mm 3 m/s 746 mmHg 92%
    10:00 +17°C° 0 mm 3 m/s 746 mmHg 90%
    11:00 +17°C° 0 mm 3 m/s 747 mmHg 89%
    12:00 +17°C° 0 mm 3 m/s 747 mmHg 88%
    13:00 +18°C° 0.2 mm 3 m/s 747 mmHg 86%
    14:00 +18°C° 0.2 mm 3 m/s 747 mmHg 84%
    15:00 +19°C° 0.2 mm 3 m/s 747 mmHg 82%
    16:00 +18°C° 0.3 mm 3 m/s 747 mmHg 84%
    17:00 +18°C° 0.3 mm 3 m/s 747 mmHg 86%
    18:00 +17°C° 0.3 mm 3 m/s 747 mmHg 88%
    19:00 +16°C° 0 mm 3 m/s 747 mmHg 90%
    20:00 +14°C° 0 mm 3 m/s 748 mmHg 91%
    21:00 +13°C° 0 mm 3 m/s 748 mmHg 93%
    22:00 +12°C° 0 mm 3 m/s 748 mmHg 93%
    23:00 +11°C° 0 mm 3 m/s 748 mmHg 93%

    Demain, 20 Juin, Jeudi

    Heure Température Précipitation Vent Pression Humidité
    00:00 +10°C° 0 mm 3 m/s 749 mmHg 93%
    01:00 +9°C° 0 mm 3 m/s 749 mmHg 93%
    02:00 +8°C° 0 mm 3 m/s 749 mmHg 93%
    03:00 +8°C° 0 mm 3 m/s 749 mmHg 93%
    04:00 +8°C° 0 mm 3 m/s 749 mmHg 93%
    05:00 +8°C° 0 mm 4 m/s 749 mmHg 92%
    06:00 +10°C° 0 mm 4 m/s 749 mmHg 92%
    07:00 +12°C° 0 mm 4 m/s 750 mmHg 87%
    08:00 +13°C° 0 mm 4 m/s 750 mmHg 83%
    09:00 +15°C° 0 mm 4 m/s 750 mmHg 78%
    10:00 +15°C° 0.2 mm 4 m/s 750 mmHg 76%
    11:00 +17°C° 0.2 mm 4 m/s 750 mmHg 74%
    12:00 +17°C° 0.2 mm 4 m/s 751 mmHg 71%
    13:00 +17°C° 0.3 mm 4 m/s 751 mmHg 74%
    14:00 +16°C° 0.3 mm 5 m/s 751 mmHg 76%
    15:00 +15°C° 0.3 mm 5 m/s 751 mmHg 79%
    16:00 +15°C° 0.1 mm 4 m/s 751 mmHg 80%
    17:00 +15°C° 0.1 mm 4 m/s 751 mmHg 81%
    18:00 +14°C° 0.1 mm 4 m/s 751 mmHg 82%
    19:00 +13°C° 0.1 mm 3 m/s 752 mmHg 86%
    20:00 +12°C° 0.1 mm 3 m/s 752 mmHg 89%
    21:00 +11°C° 0.1 mm 3 m/s 752 mmHg 92%
    22:00 +10°C° 0 mm 3 m/s 752 mmHg 93%
    23:00 +9°C° 0 mm 3 m/s 753 mmHg 93%

    Après-demain, 21 Juin, Vendredi

    Heure Température Précipitation Vent Pression Humidité
    00:00 +9°C° 0 mm 3 m/s 753 mmHg 94%
    01:00 +8°C° 0 mm 3 m/s 753 mmHg 94%
    02:00 +7°C° 0 mm 3 m/s 753 mmHg 94%
    03:00 +7°C° 0 mm 3 m/s 753 mmHg 95%
    04:00 +7°C° 0 mm 3 m/s 753 mmHg 93%
    05:00 +7°C° 0 mm 4 m/s 754 mmHg 91%
    06:00 +8°C° 0 mm 4 m/s 754 mmHg 90%
    07:00 +11°C° 0 mm 4 m/s 754 mmHg 85%
    08:00 +12°C° 0 mm 4 m/s 754 mmHg 80%
    09:00 +14°C° 0 mm 4 m/s 755 mmHg 75%
    10:00 +15°C° 0.1 mm 4 m/s 755 mmHg 72%
    11:00 +15°C° 0.1 mm 4 m/s 755 mmHg 69%
    12:00 +17°C° 0.1 mm 4 m/s 755 mmHg 66%
    13:00 +17°C° 0.1 mm 4 m/s 755 mmHg 66%
    14:00 +17°C° 0.1 mm 4 m/s 755 mmHg 66%
    15:00 +17°C° 0.1 mm 3 m/s 755 mmHg 67%
    16:00 +17°C° 0.1 mm 3 m/s 756 mmHg 69%
    17:00 +17°C° 0.1 mm 2 m/s 756 mmHg 71%
    18:00 +16°C° 0.1 mm 2 m/s 756 mmHg 74%
    19:00 +15°C° 0 mm 2 m/s 756 mmHg 78%
    20:00 +13°C° 0 mm 1 m/s 756 mmHg 82%
    21:00 +12°C° 0 mm 1 m/s 757 mmHg 86%
    22:00 +11°C° 0 mm 1 m/s 757 mmHg 87%
    23:00 +10°C° 0 mm 1 m/s 757 mmHg 89%

    22 Juin, Samedi

    Heure Température Précipitation Vent Pression Humidité
    00:00 +10°C° 0 mm 1 m/s 757 mmHg 90%
    01:00 +9°C° 0 mm 1 m/s 757 mmHg 90%
    02:00 +8°C° 0 mm 0 m/s 757 mmHg 90%
    03:00 +8°C° 0 mm 0 m/s 757 mmHg 90%
    04:00 +9°C° 0 mm 0 m/s 757 mmHg 89%
    05:00 +10°C° 0 mm 0 m/s 757 mmHg 87%
    06:00 +12°C° 0 mm 1 m/s 757 mmHg 86%
    07:00 +13°C° 0 mm 1 m/s 757 mmHg 80%
    08:00 +15°C° 0 mm 1 m/s 757 mmHg 75%
    09:00 +18°C° 0 mm 1 m/s 757 mmHg 70%
    10:00 +18°C° 0.1 mm 1 m/s 757 mmHg 68%
    11:00 +19°C° 0.1 mm 1 m/s 757 mmHg 66%
    12:00 +19°C° 0.1 mm 1 m/s 758 mmHg 64%
    13:00 +19°C° 0.1 mm 1 m/s 757 mmHg 64%
    14:00 +19°C° 0.1 mm 1 m/s 757 mmHg 64%
    15:00 +20°C° 0.1 mm 1 m/s 757 mmHg 64%
    16:00 +19°C° 0.1 mm 1 m/s 757 mmHg 68%
    17:00 +19°C° 0.1 mm 1 m/s 757 mmHg 71%
    18:00 +19°C° 0.1 mm 1 m/s 757 mmHg 75%
    19:00 +16°C° 0 mm 2 m/s 757 mmHg 79%
    20:00 +15°C° 0 mm 2 m/s 757 mmHg 84%
    21:00 +12°C° 0 mm 3 m/s 757 mmHg 88%
    22:00 +12°C° 0 mm 2 m/s 757 mmHg 89%
    23:00 +12°C° 0 mm 2 m/s 757 mmHg 91%

    23 Juin, Dimanche

    Heure Température Précipitation Vent Pression Humidité
    00:00 +10°C° 0 mm 2 m/s 757 mmHg 92%
    01:00 +10°C° 0 mm 2 m/s 757 mmHg 92%
    02:00 +10°C° 0 mm 2 m/s 757 mmHg 92%
    03:00 +9°C° 0 mm 2 m/s 757 mmHg 92%
    04:00 +10°C° 0 mm 2 m/s 757 mmHg 90%
    05:00 +12°C° 0 mm 2 m/s 757 mmHg 88%
    06:00 +13°C° 0 mm 2 m/s 757 mmHg 86%
    07:00 +13°C° 0 mm 3 m/s 757 mmHg 83%
    08:00 +15°C° 0 mm 4 m/s 757 mmHg 81%
    09:00 +17°C° 0 mm 4 m/s 757 mmHg 78%
    10:00 +17°C° 0 mm 5 m/s 757 mmHg 75%
    11:00 +19°C° 0 mm 5 m/s 757 mmHg 73%
    12:00 +19°C° 0 mm 6 m/s 757 mmHg 70%
    13:00 +19°C° 0 mm 6 m/s 757 mmHg 71%
    14:00 +19°C° 0 mm 6 m/s 757 mmHg 72%
    15:00 +19°C° 0 mm 6 m/s 756 mmHg 73%
    16:00 +17°C° 0 mm 6 m/s 756 mmHg 75%
    17:00 +17°C° 0 mm 5 m/s 756 mmHg 78%
    18:00 +16°C° 0 mm 5 m/s 756 mmHg 80%
    19:00 +15°C° 0 mm 5 m/s 756 mmHg 80%
    20:00 +15°C° 0 mm 5 m/s 756 mmHg 80%
    21:00 +14°C° 0 mm 5 m/s 756 mmHg 79%
    22:00 +14°C° 0 mm 5 m/s 756 mmHg 82%
    23:00 +14°C° 0 mm 5 m/s 756 mmHg 84%

    24 Juin, Lundi

    Heure Température Précipitation Vent Pression Humidité
    00:00 +14°C° 0 mm 6 m/s 756 mmHg 86%
    01:00 +14°C° 0 mm 6 m/s 755 mmHg 84%
    02:00 +15°C° 0 mm 6 m/s 755 mmHg 83%
    03:00 +15°C° 0 mm 7 m/s 755 mmHg 81%
    04:00 +15°C° 0 mm 7 m/s 754 mmHg 83%
    05:00 +15°C° 0 mm 7 m/s 754 mmHg 84%
    06:00 +15°C° 0 mm 7 m/s 754 mmHg 86%
    07:00 +15°C° 0.1 mm 7 m/s 754 mmHg 88%
    08:00 +15°C° 0.1 mm 7 m/s 754 mmHg 90%
    09:00 +15°C° 0.1 mm 7 m/s 754 mmHg 92%
    10:00 +16°C° 0 mm 7 m/s 754 mmHg 89%
    11:00 +17°C° 0 mm 7 m/s 754 mmHg 87%
    12:00 +18°C° 0 mm 7 m/s 754 mmHg 84%
    13:00 +18°C° 0 mm 7 m/s 754 mmHg 84%
    14:00 +19°C° 0 mm 6 m/s 754 mmHg 83%
    15:00 +20°C° 0 mm 6 m/s 754 mmHg 82%
    16:00 +20°C° 0.1 mm 6 m/s 753 mmHg 83%
    17:00 +20°C° 0.1 mm 6 m/s 753 mmHg 84%
    18:00 +20°C° 0.1 mm 6 m/s 753 mmHg 85%
    19:00 +19°C° 0.2 mm 5 m/s 754 mmHg 86%
    20:00 +19°C° 0.2 mm 4 m/s 754 mmHg 87%
    21:00 +19°C° 0.2 mm 3 m/s 754 mmHg 88%
    22:00 +19°C° 0.1 mm 3 m/s 754 mmHg 88%
    23:00 +19°C° 0.1 mm 3 m/s 754 mmHg 88%
    Voir plus